Hourly Weather Dunns River Falls

Today, 19 June, Saturday

Time Temperature Precipitation Wind Pressure Humidity
00:00 +25°C° 0 mm 4 mps 755 mmHg 95%
01:00 +25°C° 0 mm 4 mps 755 mmHg 95%
02:00 +25°C° 0 mm 4 mps 755 mmHg 95%
03:00 +25°C° 0 mm 4 mps 755 mmHg 95%
04:00 +25°C° 0 mm 4 mps 755 mmHg 94%
05:00 +26°C° 0 mm 4 mps 755 mmHg 89%
06:00 +27°C° 0 mm 4 mps 755 mmHg 84%
07:00 +28°C° 0 mm 4 mps 756 mmHg 79%
08:00 +32°C° 0 mm 5 mps 756 mmHg 68%
09:00 +34°C° 0 mm 5 mps 756 mmHg 58%
10:00 +36°C° 0 mm 6 mps 756 mmHg 47%
11:00 +38°C° 0 mm 7 mps 756 mmHg 46%
12:00 +38°C° 0 mm 7 mps 755 mmHg 45%
13:00 +39°C° 0 mm 8 mps 755 mmHg 43%
14:00 +37°C° 0 mm 8 mps 755 mmHg 48%
15:00 +35°C° 0 mm 7 mps 755 mmHg 54%
16:00 +33°C° 0 mm 7 mps 755 mmHg 59%
17:00 +32°C° 0 mm 6 mps 755 mmHg 67%
18:00 +29°C° 0 mm 6 mps 755 mmHg 74%
19:00 +28°C° 0 mm 5 mps 755 mmHg 82%
20:00 +27°C° 0 mm 5 mps 756 mmHg 84%
21:00 +27°C° 0 mm 4 mps 756 mmHg 87%
22:00 +26°C° 0 mm 4 mps 756 mmHg 89%
23:00 +26°C° 0 mm 4 mps 756 mmHg 88%

Tomorrow, 20 June, Sunday

Time Temperature Precipitation Wind Pressure Humidity
00:00 +25°C° 0 mm 5 mps 755 mmHg 88%
01:00 +25°C° 0 mm 5 mps 755 mmHg 88%
02:00 +25°C° 0 mm 5 mps 755 mmHg 89%
03:00 +25°C° 0 mm 4 mps 755 mmHg 90%
04:00 +25°C° 0 mm 4 mps 755 mmHg 91%
05:00 +26°C° 0 mm 4 mps 755 mmHg 87%
06:00 +27°C° 0 mm 4 mps 756 mmHg 83%
07:00 +28°C° 0 mm 4 mps 756 mmHg 79%
08:00 +32°C° 0 mm 4 mps 756 mmHg 68%
09:00 +34°C° 0 mm 5 mps 756 mmHg 57%
10:00 +36°C° 0 mm 5 mps 756 mmHg 46%
11:00 +38°C° 0 mm 6 mps 756 mmHg 45%
12:00 +38°C° 0 mm 6 mps 755 mmHg 44%
13:00 +39°C° 0 mm 7 mps 755 mmHg 43%
14:00 +36°C° 0.1 mm 7 mps 755 mmHg 51%
15:00 +34°C° 0.1 mm 6 mps 755 mmHg 59%
16:00 +32°C° 0.1 mm 6 mps 754 mmHg 67%
17:00 +30°C° 0 mm 6 mps 755 mmHg 71%
18:00 +29°C° 0 mm 6 mps 755 mmHg 75%
19:00 +28°C° 0 mm 6 mps 755 mmHg 79%
20:00 +27°C° 0 mm 5 mps 755 mmHg 82%
21:00 +27°C° 0 mm 5 mps 755 mmHg 85%
22:00 +26°C° 0 mm 4 mps 756 mmHg 88%
23:00 +26°C° 0 mm 4 mps 756 mmHg 88%

Day after tomorrow, 21 June, Monday

Time Temperature Precipitation Wind Pressure Humidity
00:00 +26°C° 0 mm 4 mps 755 mmHg 88%
01:00 +25°C° 0 mm 4 mps 755 mmHg 87%
02:00 +25°C° 0 mm 4 mps 755 mmHg 87%
03:00 +25°C° 0 mm 4 mps 755 mmHg 87%
04:00 +25°C° 0 mm 4 mps 755 mmHg 86%
05:00 +26°C° 0 mm 4 mps 755 mmHg 84%
06:00 +27°C° 0 mm 5 mps 755 mmHg 81%
07:00 +28°C° 0 mm 5 mps 755 mmHg 79%
08:00 +32°C° 0 mm 5 mps 756 mmHg 67%
09:00 +34°C° 0 mm 5 mps 756 mmHg 56%
10:00 +38°C° 0 mm 6 mps 756 mmHg 45%
11:00 +38°C° 0 mm 6 mps 756 mmHg 45%
12:00 +38°C° 0 mm 7 mps 755 mmHg 46%
13:00 +38°C° 0 mm 7 mps 755 mmHg 47%
14:00 +36°C° 0.1 mm 7 mps 754 mmHg 49%
15:00 +36°C° 0.1 mm 7 mps 754 mmHg 50%
16:00 +35°C° 0.1 mm 6 mps 754 mmHg 52%
17:00 +33°C° 0 mm 6 mps 754 mmHg 62%
18:00 +30°C° 0 mm 5 mps 754 mmHg 72%
19:00 +28°C° 0 mm 5 mps 754 mmHg 82%
20:00 +28°C° 0 mm 4 mps 754 mmHg 84%
21:00 +27°C° 0 mm 4 mps 755 mmHg 86%
22:00 +26°C° 0 mm 4 mps 755 mmHg 89%
23:00 +26°C° 0 mm 4 mps 755 mmHg 89%

22 June, Tuesday

Time Temperature Precipitation Wind Pressure Humidity
00:00 +26°C° 0 mm 3 mps 755 mmHg 90%
01:00 +26°C° 0 mm 3 mps 755 mmHg 91%
02:00 +25°C° 0 mm 3 mps 755 mmHg 91%
03:00 +25°C° 0 mm 3 mps 755 mmHg 91%
04:00 +25°C° 0 mm 3 mps 754 mmHg 91%
05:00 +26°C° 0 mm 3 mps 755 mmHg 86%
06:00 +27°C° 0 mm 3 mps 755 mmHg 81%
07:00 +28°C° 0 mm 3 mps 755 mmHg 76%
08:00 +30°C° 0 mm 4 mps 755 mmHg 67%
09:00 +34°C° 0 mm 4 mps 755 mmHg 57%
10:00 +36°C° 0 mm 5 mps 756 mmHg 47%
11:00 +36°C° 0.1 mm 5 mps 755 mmHg 47%
12:00 +36°C° 0.1 mm 6 mps 755 mmHg 47%
13:00 +36°C° 0.1 mm 7 mps 755 mmHg 47%
14:00 +35°C° 0.1 mm 6 mps 755 mmHg 49%
15:00 +34°C° 0.1 mm 6 mps 754 mmHg 52%
16:00 +33°C° 0.1 mm 6 mps 754 mmHg 54%
17:00 +32°C° 0 mm 6 mps 754 mmHg 61%
18:00 +29°C° 0 mm 5 mps 755 mmHg 67%
19:00 +28°C° 0 mm 5 mps 755 mmHg 74%
20:00 +27°C° 0 mm 4 mps 755 mmHg 78%
21:00 +27°C° 0 mm 4 mps 755 mmHg 82%
22:00 +26°C° 0 mm 4 mps 756 mmHg 86%
23:00 +26°C° 0 mm 3 mps 755 mmHg 87%

23 June, Wednesday

Time Temperature Precipitation Wind Pressure Humidity
00:00 +26°C° 0 mm 3 mps 755 mmHg 89%
01:00 +25°C° 0 mm 3 mps 755 mmHg 90%
02:00 +25°C° 0 mm 3 mps 755 mmHg 89%
03:00 +25°C° 0 mm 3 mps 755 mmHg 88%
04:00 +25°C° 0 mm 3 mps 755 mmHg 87%
05:00 +26°C° 0 mm 3 mps 755 mmHg 83%
06:00 +27°C° 0 mm 3 mps 755 mmHg 79%
07:00 +28°C° 0 mm 3 mps 756 mmHg 75%
08:00 +30°C° 0 mm 3 mps 756 mmHg 66%
09:00 +33°C° 0 mm 3 mps 756 mmHg 58%
10:00 +35°C° 0 mm 4 mps 756 mmHg 49%
11:00 +36°C° 0 mm 4 mps 756 mmHg 47%
12:00 +37°C° 0 mm 5 mps 755 mmHg 45%
13:00 +37°C° 0 mm 5 mps 755 mmHg 43%
14:00 +35°C° 0.2 mm 5 mps 755 mmHg 54%
15:00 +34°C° 0.2 mm 4 mps 755 mmHg 65%
16:00 +32°C° 0.2 mm 4 mps 755 mmHg 76%
17:00 +29°C° 0.1 mm 3 mps 755 mmHg 81%
18:00 +28°C° 0.1 mm 3 mps 755 mmHg 86%
19:00 +27°C° 0.1 mm 2 mps 755 mmHg 91%
20:00 +27°C° 0.1 mm 2 mps 756 mmHg 92%
21:00 +26°C° 0.1 mm 2 mps 756 mmHg 94%
22:00 +26°C° 0.1 mm 2 mps 756 mmHg 95%
23:00 +26°C° 0 mm 2 mps 756 mmHg 95%

24 June, Thursday

Time Temperature Precipitation Wind Pressure Humidity
00:00 +26°C° 0 mm 2 mps 755 mmHg 95%
01:00 +25°C° 0 mm 2 mps 755 mmHg 95%
02:00 +25°C° 0 mm 3 mps 755 mmHg 96%
03:00 +25°C° 0 mm 3 mps 755 mmHg 97%
04:00 +25°C° 0 mm 3 mps 755 mmHg 97%
05:00 +26°C° 0.1 mm 3 mps 755 mmHg 95%
06:00 +26°C° 0.1 mm 4 mps 755 mmHg 92%
07:00 +27°C° 0.1 mm 4 mps 755 mmHg 89%
08:00 +29°C° 0.1 mm 4 mps 755 mmHg 79%
09:00 +32°C° 0.1 mm 4 mps 755 mmHg 70%
10:00 +33°C° 0.1 mm 4 mps 756 mmHg 60%
11:00 +34°C° 0.2 mm 4 mps 755 mmHg 60%
12:00 +34°C° 0.2 mm 4 mps 755 mmHg 59%
13:00 +34°C° 0.2 mm 4 mps 755 mmHg 59%
14:00 +33°C° 0.3 mm 4 mps 755 mmHg 63%
15:00 +33°C° 0.3 mm 4 mps 754 mmHg 67%
16:00 +32°C° 0.3 mm 4 mps 754 mmHg 71%
17:00 +30°C° 0.1 mm 3 mps 754 mmHg 77%
18:00 +28°C° 0.1 mm 3 mps 755 mmHg 84%
19:00 +27°C° 0.1 mm 2 mps 755 mmHg 90%
20:00 +26°C° 0 mm 2 mps 755 mmHg 92%
21:00 +26°C° 0 mm 2 mps 755 mmHg 93%
22:00 +25°C° 0 mm 2 mps 756 mmHg 95%
23:00 +25°C° 0 mm 2 mps 755 mmHg 96%
Show more